Weather History for PARC - September, 2013

Change the Weather History Date:

Sunday, September 15, 2013

  Actual Average Record
Temperature  
Mean Temperature 35 °F -  
Max Temperature 42 °F 45 °F 60 °F (2006)
Min Temperature 28 °F 23 °F 15 °F (1998)
Degree Days  
Heating Degree Days 30    
Moisture  
Dew Point 18 °F    
Average Humidity 50    
Maximum Humidity 74    
Minimum Humidity 34    
Precipitation  
Precipitation 0.00 in - - ()
Sea Level Pressure  
Sea Level Pressure 30.04 in    
Wind  
Wind Speed 6 mph (North)    
Max Wind Speed 14 mph    
Max Gust Speed 22 mph    
Visibility 10 miles    
Events      
Averages and records for this station are not official NWS values.
T = Trace of Precipitation, MM = Missing Value Source: NWS Daily Summary

Daily Weather History Graph

Daily Weather History Graph

Search for Another Location

Airport or City:

Trip Planner

Search our weather history database for the weather conditions in past years. The results will help you decide how hot, cold, wet, or windy it might be!

Date:

Astronomy

Sep. 15, 2013 Rise Set
Actual Time 7:00 AM AKDT 8:12 PM AKDT
Civil Twilight 6:02 AM AKDT 9:09 PM AKDT
Nautical Twilight 4:45 AM AKDT 10:25 PM AKDT
Astronomical Twilight 2:46 AM AKDT 12:17 AM AKDT
Moon 7:04 PM AKDT (9/15) 1:03 AM AKDT (9/15)
Length of Visible Light 15h 07m
Length of Day
13h 11m
Waxing Gibbous, 83% of the Moon is Illuminated
Sep 15
Waxing Gibbous
Sep 19
Full
Sep 26
Last Quarter
Oct 4
New
Oct 11
First Quarter

Hourly Weather History & Observations

Time (AKDT) Temp. Windchill Dew Point Humidity Pressure Visibility Wind Dir Wind Speed Gust Speed Precip Events Conditions
12:16 AM 33.8 °F - 24.8 °F 70% 29.93 in 10.0 mi Calm Calm - N/A   Overcast
12:36 AM 35.6 °F 30.7 °F 23.0 °F 60% 29.93 in 10.0 mi NNW 5.8 mph - N/A   Mostly Cloudy
12:56 AM 35.6 °F 29.9 °F 19.4 °F 52% 29.93 in 10.0 mi NNW 6.9 mph 16.1 mph N/A   Scattered Clouds
1:16 AM 35.6 °F 28.0 °F 19.4 °F 52% 29.94 in 10.0 mi NW 10.4 mph - N/A   Scattered Clouds
1:36 AM 35.6 °F 28.6 °F 17.6 °F 48% 29.94 in 10.0 mi NW 9.2 mph - N/A   Mostly Cloudy
1:56 AM 35.6 °F 26.6 °F 17.6 °F 48% 29.95 in 10.0 mi WNW 13.8 mph 18.4 mph N/A   Overcast
2:16 AM 37.4 °F 30.3 °F 17.6 °F 45% 29.95 in 10.0 mi WNW 10.4 mph 21.9 mph N/A   Scattered Clouds
2:36 AM 35.6 °F 27.1 °F 17.6 °F 48% 29.95 in 10.0 mi West 12.7 mph - N/A   Scattered Clouds
2:56 AM 35.6 °F 31.7 °F 17.6 °F 48% 29.96 in 10.0 mi West 4.6 mph - N/A   Clear
3:16 AM 33.8 °F 27.7 °F 17.6 °F 52% 29.96 in 10.0 mi NW 6.9 mph - N/A   Clear
3:36 AM 33.8 °F 29.6 °F 17.6 °F 52% 29.97 in 10.0 mi WNW 4.6 mph - N/A   Scattered Clouds
3:56 AM 32.0 °F 26.4 °F 17.6 °F 55% 29.98 in 10.0 mi WNW 5.8 mph - N/A   Partly Cloudy
4:16 AM 32.0 °F 26.4 °F 17.6 °F 55% 29.98 in 10.0 mi WNW 5.8 mph - N/A   Clear
4:36 AM 30.2 °F 24.3 °F 19.4 °F 64% 29.99 in 10.0 mi WNW 5.8 mph - N/A   Clear
4:56 AM 30.2 °F 23.4 °F 17.6 °F 60% 29.99 in 10.0 mi West 6.9 mph - N/A   Clear
5:16 AM 30.2 °F 23.4 °F 15.8 °F 55% 29.99 in 10.0 mi WNW 6.9 mph - N/A   Clear
5:36 AM 30.2 °F 22.6 °F 17.6 °F 60% 29.99 in 10.0 mi WNW 8.1 mph - N/A   Clear
5:56 AM 32.0 °F - 17.6 °F 55% 30.00 in 10.0 mi Calm Calm - N/A   Clear
6:16 AM 32.0 °F 25.6 °F 15.8 °F 51% 30.00 in 10.0 mi NW 6.9 mph - N/A   Clear
6:36 AM 30.2 °F 24.3 °F 17.6 °F 60% 30.01 in 10.0 mi North 5.8 mph - N/A   Clear
6:56 AM 30.2 °F 26.7 °F 17.6 °F 60% 30.02 in 10.0 mi South 3.5 mph - N/A   Clear
7:16 AM 32.0 °F 28.7 °F 15.8 °F 51% 30.02 in 10.0 mi NW 3.5 mph - N/A   Clear
7:36 AM 30.2 °F - 19.4 °F 64% 30.03 in 10.0 mi Calm Calm - N/A   Clear
7:56 AM 32.0 °F - 19.4 °F 60% 30.04 in 10.0 mi Calm Calm - N/A   Clear
8:16 AM 30.2 °F 25.4 °F 19.4 °F 64% 30.04 in 10.0 mi South 4.6 mph - N/A   Clear
8:36 AM 33.8 °F - 19.4 °F 56% 30.05 in 10.0 mi Calm Calm - N/A   Clear
8:56 AM 33.8 °F - 19.4 °F 56% 30.05 in 10.0 mi Calm Calm - N/A   Clear
9:16 AM 35.6 °F 31.7 °F 19.4 °F 52% 30.06 in 10.0 mi East 4.6 mph - N/A   Clear
9:36 AM 35.6 °F 31.7 °F 19.4 °F 52% 30.07 in 10.0 mi SE 4.6 mph - N/A   Clear
9:56 AM 35.6 °F 32.8 °F 19.4 °F 52% 30.07 in 10.0 mi NE 3.5 mph - N/A   Clear
10:16 AM 37.4 °F 32.1 °F 15.8 °F 41% 30.07 in 10.0 mi North 6.9 mph - N/A   Clear
10:36 AM 37.4 °F 30.8 °F 17.6 °F 45% 30.07 in 10.0 mi NNE 9.2 mph - N/A   Clear
10:56 AM 37.4 °F 32.1 °F 15.8 °F 41% 30.08 in 10.0 mi NNE 6.9 mph - N/A   Clear
11:16 AM 37.4 °F 31.4 °F 15.8 °F 41% 30.08 in 10.0 mi North 8.1 mph - N/A   Clear
11:36 AM 39.2 °F 33.0 °F 17.6 °F 42% 30.08 in 10.0 mi North 9.2 mph - N/A   Clear
11:56 AM 39.2 °F 34.2 °F 15.8 °F 39% 30.08 in 10.0 mi North 6.9 mph - N/A   Clear
12:16 PM 39.2 °F 33.6 °F 15.8 °F 39% 30.08 in 10.0 mi NNE 8.1 mph - N/A   Clear
12:36 PM 39.2 °F 33.6 °F 15.8 °F 39% 30.08 in 10.0 mi NNW 8.1 mph - N/A   Partly Cloudy
12:56 PM 39.2 °F 33.6 °F 15.8 °F 39% 30.08 in 10.0 mi NW 8.1 mph - N/A   Scattered Clouds
1:16 PM 39.2 °F 35.9 °F 15.8 °F 39% 30.08 in 10.0 mi NNW 4.6 mph - N/A   Partly Cloudy
1:36 PM 41.0 °F 36.4 °F 15.8 °F 36% 30.09 in 10.0 mi NNE 6.9 mph - N/A   Clear
1:56 PM 42.8 °F 39.3 °F 15.8 °F 34% 30.09 in 10.0 mi NE 5.8 mph - N/A   Clear
2:16 PM 42.8 °F 40.1 °F 15.8 °F 34% 30.08 in 10.0 mi NNE 4.6 mph - N/A   Scattered Clouds
2:36 PM 42.8 °F 37.5 °F 15.8 °F 34% 30.08 in 10.0 mi NE 9.2 mph - N/A   Mostly Cloudy
2:56 PM 42.8 °F 38.6 °F 15.8 °F 34% 30.08 in 10.0 mi NE 6.9 mph - N/A   Mostly Cloudy
3:16 PM 42.8 °F 38.6 °F 15.8 °F 34% 30.08 in 10.0 mi NE 6.9 mph - N/A   Overcast
3:36 PM 39.2 °F 33.6 °F 17.6 °F 42% 30.08 in 10.0 mi NE 8.1 mph - N/A   Overcast
3:56 PM 41.0 °F 37.1 °F 15.8 °F 36% 30.08 in 10.0 mi NE 5.8 mph - N/A   Overcast
4:16 PM 42.8 °F 40.1 °F 17.6 °F 36% 30.08 in 10.0 mi NNE 4.6 mph - N/A   Overcast
4:36 PM 41.0 °F 35.2 °F 17.6 °F 39% 30.07 in 10.0 mi ENE 9.2 mph - N/A   Overcast
4:56 PM 39.2 °F 33.0 °F 15.8 °F 39% 30.07 in 10.0 mi ENE 9.2 mph - N/A   Overcast
5:16 PM 39.2 °F 33.6 °F 15.8 °F 39% 30.07 in 10.0 mi ENE 8.1 mph - N/A   Overcast
5:36 PM 39.2 °F 35.0 °F 15.8 °F 39% 30.08 in 10.0 mi NE 5.8 mph - N/A   Overcast
5:56 PM 39.2 °F 34.2 °F 17.6 °F 42% 30.08 in 10.0 mi NE 6.9 mph - N/A   Mostly Cloudy
6:16 PM 39.2 °F 33.6 °F 17.6 °F 42% 30.08 in 10.0 mi NNE 8.1 mph - N/A   Partly Cloudy
6:36 PM 39.2 °F 33.6 °F 17.6 °F 42% 30.08 in 10.0 mi NNE 8.1 mph - N/A   Clear
6:56 PM 37.4 °F 31.4 °F 15.8 °F 41% 30.08 in 10.0 mi NE 8.1 mph - N/A   Clear
7:16 PM 37.4 °F 32.1 °F 17.6 °F 45% 30.08 in 10.0 mi NE 6.9 mph - N/A   Clear
7:36 PM 35.6 °F 29.9 °F 17.6 °F 48% 30.07 in 10.0 mi North 6.9 mph - N/A   Clear
7:56 PM 35.6 °F 29.2 °F 17.6 °F 48% 30.07 in 10.0 mi North 8.1 mph - N/A   Clear
8:16 PM 33.8 °F 27.0 °F 17.6 °F 52% 30.07 in 10.0 mi North 8.1 mph - N/A   Clear
8:36 PM 33.8 °F 25.8 °F 17.6 °F 52% 30.07 in 10.0 mi NNE 10.4 mph - N/A   Clear
8:56 PM 33.8 °F 25.8 °F 17.6 °F 52% 30.08 in 10.0 mi North 10.4 mph - N/A   Clear
9:16 PM 33.8 °F 27.0 °F 17.6 °F 52% 30.08 in 10.0 mi North 8.1 mph - N/A   Clear
9:36 PM 32.0 °F 25.6 °F 19.4 °F 60% 30.08 in 10.0 mi ENE 6.9 mph - N/A   Clear
9:56 PM 30.2 °F 22.6 °F 21.2 °F 69% 30.08 in 10.0 mi East 8.1 mph - N/A   Clear
10:16 PM 30.2 °F 23.4 °F 21.2 °F 69% 30.08 in 10.0 mi ENE 6.9 mph - N/A   Clear
10:36 PM 30.2 °F 23.4 °F 21.2 °F 69% 30.08 in 10.0 mi East 6.9 mph - N/A   Clear
10:56 PM 30.2 °F 23.4 °F 21.2 °F 69% 30.08 in 10.0 mi East 6.9 mph - N/A   Clear
11:16 PM 28.4 °F 20.4 °F 21.2 °F 74% 30.08 in 10.0 mi ENE 8.1 mph - N/A   Clear
11:36 PM 28.4 °F 22.2 °F 21.2 °F 74% 30.08 in 10.0 mi ENE 5.8 mph - N/A   Clear
11:56 PM 28.4 °F 23.3 °F 21.2 °F 74% 30.08 in 10.0 mi NE 4.6 mph - N/A   Clear